Home > Time Zones > World Clock > Weather > Peru > Lima > Past weeks

Flag for Peru Weather past 2 weeks in Lima, Lima, Peru

Now
64 °F

Overcast.


Feels Like: 64 °F
Forecast: 62 / 69 °F
Wind: 7 mph from South

Location: Lima-Callao / Aerop. Internacional Jorgechavez

Current Time: Sep 17, 2014 at 12:17:44 PM

Latest Report: Sep 17, 2014 at 12:00 PM


Visibility: N/A

Pressure: 30.04 "Hg

Humidity: 78%

Dew point: 57 °F

Location of LimaLocation

Historic Weather in Lima — Graph

°F

Lima temperature yesterday

Maximum temperature yesterday: 64 °F (at 11:00 AM)
Minimum temperature yesterday: 59 °F (at 2:00 AM)
Average temperature yesterday: 62 °F

Past Weeks' High & Low Weather Summary

 TemperatureHumidityPressure
High73 °F (Sep 12, 11:00 AM)100% (Sep 8, 6:00 AM)30.07 "Hg (Sep 8, 6:00 AM)
Low59 °F (Sep 6, 6:00 AM)61% (Sep 12, 11:00 AM)29.83 "Hg (Sep 11, 3:00 PM)
Average62 °F84%29.96 "Hg
* Reported Sep 2 11:00 AM — Sep 17 11:00 AM, Lima, Weather by CustomWeather, © 2014

Note: Actual official high and low records may vary slightly from our data, if they occured in-between our weather recording intervals... More about our weather records

Advertising

Lima weather history for previous 24 hours

 ConditionsComfort  
Time TempWeatherWind HumidityBarometerVisibility
11:00 AM
Sep 17
64 °FOvercast.8 mph78%30.04 "HgN/A
10:00 AM63 °FMore clouds than sun.9 mph83%30.07 "HgN/A
9:00 AM61 °FPartly sunny.10 mph88%30.04 "HgN/A
8:00 AM61 °FLow clouds.8 mph88%30.04 "HgN/A
7:00 AM59 °FLow clouds.7 mph94%30.01 "HgN/A
6:00 AM59 °FLow clouds.7 mph94%30.01 "HgN/A
5:00 AM59 °FDrizzle. Low clouds.7 mph94%29.98 "Hg5 mi
4:00 AM59 °FLow clouds.7 mph94%29.98 "HgN/A
3:00 AM59 °FDrizzle. Low clouds.8 mph94%29.98 "Hg5 mi
2:00 AM59 °FDrizzle. Fog.8 mph94%30.01 "Hg3 mi
1:00 AM61 °FDrizzle. Low clouds.8 mph88%30.01 "Hg4 mi
12:00 AM61 °FLow clouds.8 mph88%30.04 "Hg5 mi
11:00 PM
Sep 16
61 °FLow clouds.7 mph94%30.04 "Hg4 mi
10:00 PM63 °FOvercast.7 mph88%30.01 "Hg5 mi
9:00 PM63 °FLow clouds.7 mph88%30.01 "Hg6 mi
8:00 PM63 °FOvercast.7 mph83%30.01 "HgN/A
7:00 PM63 °FOvercast.7 mph83%29.98 "Hg5 mi
6:00 PM63 °FOvercast.6 mph83%29.98 "Hg5 mi
5:00 PM63 °FOvercast.7 mph83%29.95 "HgN/A
2:00 PM64 °FMore clouds than sun.9 mph78%29.98 "HgN/A
1:00 PM64 °FOvercast.8 mph78%30.01 "HgN/A
12:00 PM64 °FOvercast.7 mph78%30.04 "HgN/A
Weather by CustomWeather, © 2014

See weather overviewHow to use our weather pages